Regional Weather Roundup
Issued by NWS

Home | Current Version | Previous Version | Text Only | Print | Product List | Glossary On
Versions: 1 2 3 4 5 6 7 8 9 10 11 12 13 14 15 16 17 18 19 20 21 22 23 24 25 26 27 28 29 30 31 32 33 34 35 36 37 38 39 40 41 42 43 44 45 46 47 48 49 50
000
ASUS45 KABQ 212310
RWRNM
NEW MEXICO REGIONAL WEATHER ROUNDUP
NATIONAL WEATHER SERVICE ALBUQUERQUE NM
500 PM MDT THU SEP 21 2017

NOTE: "FAIR" MEANS FEW OR NO CLOUDS BELOW 12,000 FEET AGL WITH NO
       SIGNIFICANT WEATHER OR OBSTRUCTIONS TO VISION.

      THIS PRODUCT IS RELEASED AS TWO VERSIONS.  ONE VERSION NEAR
      THE TOP OF THE HOUR CONTAINING PRELIMINARY DATA FROM ALBUQUERQUE
      AND OTHER STATIONS.  A FINAL VERSION WITH ADDITIONAL DATA IS
      ISSUED ABOUT 10 MINUTES AFTER THE HOUR.

NMZ501-503-504-510>518-220000-
NORTHWEST PLATEAU/NORTHCENTRAL MOUNTAINS

CITY           SKY/WX    TMP DP  RH WIND       PRES   REMARKS
FARMINGTON     FAIR      83  18   9 SW15G23   29.84F
LOS ALAMOS     FAIR      76  25  15 S17G31    30.03S
SANTA FE       FAIR      80  28  15 S9G25     29.97F
TAOS           FAIR      78  26  14 SW25G32   30.00F
ANGEL FIRE     FAIR      70  25  18 SW17G25   30.10S

$$
NMZ402-403-502-505>509-220000-
WESTCENTRAL MOUNTAINS/SOUTHWEST MOUNTAINS

CITY           SKY/WX    TMP DP  RH WIND       PRES   REMARKS
GALLUP         FAIR      79  27  14 SW21G31   29.96F
GRANTS         PTSUNNY   83  26  12 SW9G25    29.98S
SILVER CITY    CLOUDY    82  42  24 SW14G21   29.98S

$$
NMZ407-409-411-412-220000-
SOUTHERN DESERTS

CITY           SKY/WX    TMP DP  RH WIND       PRES   REMARKS
DEMING         FAIR      89  45  21 SW13G20   29.90F
LAS CRUCES     FAIR      91  39  16 SW13G18   29.92S
HOLLOMAN AFB   FAIR      91  45  20 S15       29.89F
ALAMOGORDO     FAIR      90  45  20 SW5G17    29.90F
T OR C         FAIR      89  39  17 SW18G28   29.89F

$$
NMZ519>523-220000-
CENTRAL VALLEYS/CENTRAL HIGHLANDS

CITY           SKY/WX    TMP DP  RH WIND       PRES   REMARKS
ALBUQUERQUE    FAIR      86  36  16 S18G32    29.89F
DOUBLE EAGLE   MOSUNNY   84  36  17 S17       29.92F
MORIARTY ARPT  FAIR      85  32  15 SW18      29.98F
CLINES CORNERS FAIR      78  29  16 SW18G29   30.05S
BELEN          FAIR      87  31  13 S15G23    29.87F
SOCORRO        FAIR      88  32  13 S16       29.87F

$$
NMZ524>526-539-540-220000-
SOUTHCENTRAL MOUNTAINS

CITY           SKY/WX    TMP DP  RH WIND       PRES   REMARKS
RUIDOSO        FAIR      77  39  25 SW17      30.10S

$$
NMZ527>531-220000-
NORTHEAST HIGHLANDS/NORTHEAST PLAINS

CITY           SKY/WX    TMP DP  RH WIND       PRES   REMARKS
LAS VEGAS      FAIR      77  24  14 SW18G26   30.01F
RATON          FAIR      82  25  12 S21G30    29.89F
CLAYTON        FAIR      87  32  14 SW26G39   29.84F

$$
NMZ532>537-220000-
EASTCENTRAL PLAINS

CITY           SKY/WX    TMP DP  RH WIND       PRES   REMARKS
SANTA ROSA     FAIR      89  32  13 SW21G28   29.86S
TUCUMCARI      FAIR      94  43  17 SW23G30   29.80F
CANNON AFB     NOT AVBL
CLOVIS AIRPORT FAIR      88  46  23 S16       29.89S

$$
NMZ028-029-538-220000-
SOUTHEAST PLAINS

CITY           SKY/WX    TMP DP  RH WIND       PRES   REMARKS
ROSWELL        FAIR      96  39  13 SW22G32   29.82F
ARTESIA        FAIR      95  45  17 SW21G28   29.84S
CARLSBAD       FAIR      96  48  19 SW15G23   29.81F
HOBBS          MOSUNNY   93  48  21 S13       29.87F


$$



USA.gov is the U.S. government's official web portal to all federal, state and local government web resources and services.